Tracking 30995 objects as of 7-Jul-2025
HD Live streaming from Space Station
objects crossing your sky now

DELTA 1 DEB

Track DELTA 1 DEB now!
10-day predictions


NORAD ID: 37639
Int'l Code: 1978-026JA
Perigee: 872.0 km
Apogee: 1,039.4 km
Inclination: 98.9 °
Period: 104.0 minutes
Semi major axis: 7326 km
RCS: 0.0118 m2 (small)
Launch date: March 5, 1978
Source: United States (US)
Launch site: AIR FORCE WESTERN TEST RANGE (AFWTR)

Note: This is SATELLITE DEBRIS
Your satellite tracking list
NOAA 16 DEB
Track 1 satellite(s)




NASA's NSSDC Master Catalog

Two Line Element Set (TLE):
1 37639U 78026JA  25187.28615839  .00000109  00000-0  12823-3 0  9995
2 37639  98.9115 110.6006 0114260 253.2495 259.5528 13.84332475662562
Source of the keplerian elements: AFSPC